Location: *
(51.5000°N, 0.1100°W)
Time: 19:52:33
(UTC+00:00)

Cosmos 2242 Rocket - Pass Details

Date: 25 May 2024
Orbit: 617 x 647 km, 82.5° (Epoch: 16 June)

Event Time Altitude Azimuth Distance (km) Brightness Sun altitude
Exits shadow 01:36:21 15° 163° (SSE) 1,697 5.4 -14.3°
Maximum altitude 01:39:48 46° 94° (E) 850 4.4 -14.1°
Drops below altitude 10° 01:44:07 10° 21° (NNE) 2,037 7.7 -13.8°
Sets 01:46:26 0° 15° (NNE) 2,956 8.8 -13.6°
